Regional Weather Roundup
Issued by NWS

Home | Current Version | Previous Version | Text Only | Print | Product List | Glossary On
Versions: 1 2 3 4 5 6 7 8 9 10 11 12 13 14 15 16 17 18 19 20 21 22 23 24 25 26 27
000
ASUS44 KLIX 210313
RWRLA
LOUISIANA WEATHER ROUNDUP
NATIONAL WEATHER SERVICE NEW ORLEANS LA
1000 PM CDT SUN AUG 20 2017

NOTE: "FAIR" INDICATES FEW OR NO CLOUDS BELOW 12,000 FEET WITH NO
      SIGNIFICANT WEATHER AND/OR OBSTRUCTIONS TO VISIBILITY.
      SKY/WX - SKY CONDITION AND SIGNIFICANT WEATHER.
      TMP - AIR TEMPERATURE.    DP   - DEWPOINT TEMPERATURE.
      RH  - RELATIVE HUMIDITY.  PRES - PRESSURE.
      HX  - HEAT INDEX.         WCI  - WIND CHILL INDEX.

*  THESE STATIONS ARE NOT NWS OR FAA STATIONS AND ARE NOT UNDER
   NWS QUALITY CONTROL.

LAZ040-048-061>063-065-066-069-210400-
SOUTHEAST LOUISIANA

CITY           SKY/WX    TMP DP  RH WIND       PRES   REMARKS
N.O. INTL ARPT PTCLDY    84  75  74 SE6       30.05R
N.O. LAKEFRONT CLEAR     86  77  74 SE7       30.06R HX  97
N.O. DOWNTOWN* FAIR      88  76  67 SE6       30.06R HX  99
RESERVE*       FAIR      84  75  74 SE3       30.05R
SLIDELL        CLEAR     80  76  87 CALM      30.05R
BATON ROUGE    CLEAR     81  77  88 CALM      30.04R
BOOTHVILLE     CLEAR     84  80  88 SE3       30.06R HX  97
BELLE CHASSE   NOT AVBL
BOGALUSA*      FAIR      82  76  81 CALM      30.07R
GALLIANO*      CLEAR     82  75  78 CALM      30.05R
NEW ROADS*     FAIR      81  78  91 S6        30.04R
GONZALES*      FAIR      79  76  89 CALM      30.04R
HAMMOND*       CLEAR     81  73  78 CALM      30.05R
HOUMA*         NOT AVBL
PORT FOURCHON* PTCLDY    84  75  74 E7        30.05R

$$

LAZ041-044-053-054-210400-
SOUTHWEST LOUISIANA

CITY           SKY/WX    TMP DP  RH WIND       PRES   REMARKS
LAKE CHARLES   PTCLDY    82  79  90 CALM      30.02R
LAFAYETTE      CLEAR     81  74  79 CALM      30.04R
PATTERSON      CLEAR     77  76  96 CALM      30.05R
SALT POINT       N/A     78  76  93 CALM      30.03R
NEW IBERIA     CLEAR     77  73  87 E3        30.04R
CHENAULT AIRPK CLEAR     79  75  89 CALM      30.02S

$$

LAZ027-028-210400-
CENTRAL LOUISIANA

CITY           SKY/WX    TMP DP  RH WIND       PRES   REMARKS
FORT POLK      PTCLDY    76  75  95 CALM      30.03R
ALEXANDRIA INT PTCLDY    82  81  96 CALM      30.01S HX  95
ALEXANDRIA     FOG       78  78 100 CALM      30.03S VSB 1

$$

LAZ001-002-210400-
NORTHWEST LOUISIANA

CITY           SKY/WX    TMP DP  RH WIND       PRES   REMARKS
SHREVEPORT     MOCLDY    79  76  90 CALM      30.02R
BARKSDALE AFB  PTCLDY    75  75 100 CALM      30.03R
DTN SHREVEPORT PTCLDY    79  74  84 E5        30.03R

$$

LAZ014-016-210400-
NORTHEAST LOUISIANA

CITY           SKY/WX    TMP DP  RH WIND       PRES   REMARKS
MONROE         CLOUDY    81  77  88 CALM      30.04R
TALLULAH       CLEAR     79  77  94 CALM      30.04R

$$





USA.gov is the U.S. government's official web portal to all federal, state and local government web resources and services.